{"data":{"norad_id":64936,"epoch":"2026-09-20T12:06:13.757760Z","epoch_age_seconds":123850,"freshness":"FRESH","line1":"1 64936U 25158E   26263.50432590  .00012840  00000+0  39932-3 0  9999","line2":"2 64936  97.2858 121.7626 0001436  95.4948 264.6458 15.33449053 64706","mean_motion":15.33449053,"eccentricity":0.0001436,"inclination_deg":97.2858,"raan_deg":121.7626,"arg_perigee_deg":95.4948,"mean_anomaly_deg":264.6458,"bstar":0.00039932,"rev_number":6470,"period_min":93.90595645697,"perigee_km":464.54836488681,"apogee_km":466.51386636962,"semimajor_km":6843.6681156282,"source":"CELESTRAK","updated_at":"2026-09-21T09:00:35.486723Z"}}